SCP
1 0 0 0 0 -0 0 1 1 1 0 -0 -0 -0 0 0 0 0 0 0 0 -0 -0 -0 0 0 -0 -0 -0 0 0 0
1 0 0 0 0 0 0 1 0 1 0 0 0 0 0 1 0 0 0 0 -0 -0 -0 0 0 -0 -0 -0 -0 -0 0 0
1 0 0 0 0 0 0 0 0 0 0 0 0 1 0 0 0 0 0 0 -0 -0 -0 0 0 0 -0 -0 -0 0 0 0
1 0 0 0 0 0 0 0 0 1 1 1 1 0 0 0 0 0 0 0 -0 -0 -0 0 0 0 -0 -0 -0 0 0 0
0 0 0 -0 0 -0 0 0 0 0 1 1 0 1 0 1 1 0 0 0 0 0 0 0 0 -0 -0 -0 0 0 0 0
0 0 0 0 0 0 0 0 0 0 0 0 1 1 0 1 1 0 0 0 0 0 0 0 0 0 -0 0 -0 0 0 0
0 0 -0 0 0 0 0 0 1 0 0 0 0 0 0 0 0 0 0 0 0 0 0 0 0 0 0 0 -0 0 0 0
0 0 0 0 0 0 0 0 0 0 0 1 0 1 0 0 0 0 0 0 0 0 0 0 0 0 0 0 0 0 0 0
0 0 0 0 0 0 0 0 0 0 0 0 0 0 0 0 0 0 0 0 0 0 0 0 0 0 0 0 0 0 0 0
0 0 0 0 0 0 0 0 1 0 0 0 0 0 0 0 0 0 0 0 0 0 0 0 0 0 0 0 0 0 0 0
0 0 0 0 0 0 0 0 0 0 0 0 0 0 0 0 0 0 0 0 0 0 0 0 0 0 0 0 0 0 0 0
0 0 0 0 0 0 0 0 0 0 0 0 0 0 0 0 0 0 0 0 0 0 0 0 0 0 0 0 0 0 0 0
0 0 0 0 0 0 0 0 0 0 0 0 0 0 0 0 0 0 0 0 0 0 0 0 0 0 0 0 0 0 0 0
0 0 0 0 0 0 0 0 0 0 0 0 0 0 0 0 0 0 0 0 0 0 0 0 0 0 0 0 0 0 0 0
0 0 0 0 0 0 0 0 0 0 0 0 0 0 0 0 0 0 0 0 0 0 0 0 0 0 0 0 0 0 0 0
0 -0 0 0 0 0 -0 0 0 0 0 0 0 0 0 0 0 0 0 0 0 0 0 0 0 0 0 0 0 0 0 0
-0 -0 -0 0 0 -0 0 0 0 0 0 0 0 0 0 0 0 0 0 -0 0 0 0 0 0 0 0 0 0 0 0 0
-0 -0 -0 -0 -0 0 0 0 0 0 0 0 0 0 0 0 0 0 0 0 0 0 0 0 0 0 0 -0 0 0 0 0
-0 -0 -0 -0 -0 -0 -0 -0 0 0 0 0 0 0 0 0 0 0 0 0 0 0 0 0 0 0 0 0 0 0 0 0
-0 -0 -0 -0 -0 -0 -0 -0 -0 0 0 0 0 0 0 0 0 0 0 0 0 0 0 0 0 0 -0 -0 0 0 0 0
Wind_Speed_500mb
37 41 52 70 63 101 93 99 95 92 88 77 63 57 60 55 51 50 54 57 53 51 48 45 44 43 42 44 54 44 29 29
29 40 53 48 46 65 74 88 93 92 86 75 65 65 60 55 57 55 59 59 54 51 46 44 43 42 39 40 51 40 28 28
27 26 38 46 32 84 69 92 96 97 84 79 73 69 57 61 56 56 61 58 54 52 46 45 43 40 40 41 34 23 24 22
34 27 14 14 29 33 53 55 59 89 86 82 76 71 72 64 59 60 61 59 55 51 45 42 41 43 41 33 25 22 18 19
30 21 28 30 38 53 25 37 64 70 85 84 78 67 65 67 65 61 62 60 57 51 47 40 30 30 27 15 22 21 19 18
21 21 30 42 50 54 37 48 69 45 73 77 71 74 78 69 76 70 69 64 61 55 48 32 30 28 22 23 23 19 20 18
18 20 24 33 47 37 47 41 59 68 67 77 72 83 83 68 74 69 57 54 61 50 41 33 29 26 24 25 23 21 21 18
17 20 25 29 33 40 42 46 62 62 71 77 77 81 78 73 67 64 55 53 52 46 40 36 31 29 28 23 22 21 21 20
19 21 22 29 34 36 44 54 67 70 75 82 79 80 82 82 71 65 56 54 52 47 41 34 34 29 25 25 22 22 22 23
27 25 25 27 32 40 39 65 71 77 83 86 80 75 79 85 72 67 57 56 53 45 44 40 34 30 27 24 22 21 23 25
27 22 22 24 32 40 50 59 71 84 87 99 102 84 80 82 69 69 66 50 52 48 44 42 37 31 27 25 23 21 25 21
23 24 25 22 23 29 38 60 78 90 104 105 99 94 86 86 67 59 53 50 50 47 47 37 34 32 26 24 22 23 19 25
25 24 22 13 21 29 36 61 73 99 109 106 103 95 98 79 68 62 60 53 59 51 45 41 33 31 28 24 19 22 28 28
30 26 21 18 17 28 24 40 85 99 100 107 94 101 97 86 75 73 67 51 46 47 45 38 31 34 30 23 17 23 33 41
36 32 28 23 23 33 39 66 84 91 89 92 96 105 101 93 77 75 68 51 53 56 50 40 31 34 34 19 15 19 21 35
31 33 32 30 27 41 41 39 70 81 92 84 90 87 87 90 67 72 68 58 52 51 46 44 34 25 35 42 34 22 9 10
33 34 30 38 43 44 50 45 38 44 47 56 65 77 87 86 77 74 66 62 45 48 48 47 42 36 33 32 43 51 54 38
36 35 30 40 48 54 58 54 53 56 60 71 75 70 85 86 81 81 74 64 56 49 44 44 47 48 48 38 37 33 42 45
39 36 33 42 47 49 50 54 53 64 59 68 72 78 74 82 77 74 67 61 55 51 46 55 60 58 59 61 59 59 62 59
40 42 35 46 47 35 41 46 55 65 68 62 63 69 77 78 71 73 79 73 64 55 71 76 66 62 62 62 62 57 61 64
Wind_Direction_500mb
263 262 245 237 278 254 227 203 198 193 189 183 180 179 179 178 173 165 160 155 151 145 139 137 137 137 135 132 119 120 128 132
257 259 246 263 269 211 239 193 197 190 186 181 179 182 178 175 173 165 160 156 152 146 142 140 138 137 135 131 124 119 129 123
264 266 256 274 253 197 231 199 189 188 184 179 178 177 177 177 169 166 163 159 154 150 147 144 138 136 132 120 106 129 129 139
286 271 240 150 183 198 221 162 180 183 180 179 175 176 177 164 173 168 166 162 157 153 151 144 144 141 133 115 109 139 136 144
283 270 194 173 185 190 218 190 185 184 178 177 173 176 168 178 168 169 168 167 162 158 156 151 153 151 143 127 154 128 144 154
263 248 214 214 191 198 219 215 197 194 180 173 174 176 170 179 169 170 172 170 169 168 162 150 167 170 145 166 145 150 151 159
250 224 214 217 216 208 217 212 202 184 180 175 182 176 177 179 168 169 172 169 172 169 165 168 175 173 167 161 155 153 154 163
221 216 213 212 218 216 205 196 197 197 194 186 183 179 178 178 169 165 168 173 168 170 169 176 178 179 170 165 161 160 156 173
195 201 214 215 214 219 210 207 201 207 195 192 189 184 185 175 172 164 165 177 173 171 176 178 175 176 174 168 170 170 173 175
215 217 216 229 226 218 216 218 215 203 199 199 190 187 184 173 170 165 172 178 178 177 177 181 178 175 178 176 173 183 186 184
208 210 219 221 233 235 224 218 211 212 204 201 195 191 187 177 170 171 180 181 181 180 179 182 177 180 181 179 178 189 194 191
199 199 223 240 255 262 249 221 222 209 200 191 192 191 192 181 185 177 179 183 182 180 182 180 183 182 182 184 186 197 198 205
186 194 222 215 253 269 245 233 220 203 198 203 199 197 187 186 184 187 182 184 184 182 177 182 182 184 181 184 197 203 212 213
186 195 210 205 218 227 185 197 189 192 182 198 200 196 187 176 181 196 193 185 180 183 182 184 183 188 190 180 210 228 235 232
186 197 202 197 204 191 163 142 169 181 179 182 196 199 184 185 187 204 190 192 197 199 191 190 189 205 198 188 210 230 240 240
187 196 202 197 197 186 176 148 146 160 178 188 196 183 178 186 192 203 197 199 208 205 210 214 194 223 225 219 224 221 239 228
185 198 199 190 187 179 185 181 184 181 178 177 165 177 188 193 200 210 210 210 205 213 215 216 225 224 247 241 250 243 245 254
187 200 197 190 189 188 187 196 198 194 190 182 184 181 191 197 202 207 208 216 219 221 224 225 235 240 235 246 247 244 259 249
184 189 200 193 191 195 202 210 209 196 190 191 191 191 193 195 202 208 211 217 218 218 225 233 239 245 250 261 257 253 257 253
179 182 185 187 186 187 192 192 200 193 187 192 196 201 204 207 203 207 213 223 231 235 247 246 246 248 254 260 264 260 264 267
Wind_Speed_850mb
37 41 52 70 63 101 93 99 95 92 88 77 63 57 60 55 51 50 54 57 53 51 48 45 44 43 42 44 54 44 29 29
29 40 53 48 46 65 74 88 93 92 86 75 65 65 60 55 57 55 59 59 54 51 46 44 43 42 39 40 51 40 28 28
27 26 38 46 32 84 69 92 96 97 84 79 73 69 57 61 56 56 61 58 54 52 46 45 43 40 40 41 34 23 24 22
34 27 14 14 29 33 53 55 59 89 86 82 76 71 72 64 59 60 61 59 55 51 45 42 41 43 41 33 25 22 18 19
30 21 28 30 38 53 25 37 64 70 85 84 78 67 65 67 65 61 62 60 57 51 47 40 30 30 27 15 22 21 19 18
21 21 30 42 50 54 37 48 69 45 73 77 71 74 78 69 76 70 69 64 61 55 48 32 30 28 22 23 23 19 20 18
18 20 24 33 47 37 47 41 59 68 67 77 72 83 83 68 74 69 57 54 61 50 41 33 29 26 24 25 23 21 21 18
17 20 25 29 33 40 42 46 62 62 71 77 77 81 78 73 67 64 55 53 52 46 40 36 31 29 28 23 22 21 21 20
19 21 22 29 34 36 44 54 67 70 75 82 79 80 82 82 71 65 56 54 52 47 41 34 34 29 25 25 22 22 22 23
27 25 25 27 32 40 39 65 71 77 83 86 80 75 79 85 72 67 57 56 53 45 44 40 34 30 27 24 22 21 23 25
27 22 22 24 32 40 50 59 71 84 87 99 102 84 80 82 69 69 66 50 52 48 44 42 37 31 27 25 23 21 25 21
23 24 25 22 23 29 38 60 78 90 104 105 99 94 86 86 67 59 53 50 50 47 47 37 34 32 26 24 22 23 19 25
25 24 22 13 21 29 36 61 73 99 109 106 103 95 98 79 68 62 60 53 59 51 45 41 33 31 28 24 19 22 28 28
30 26 21 18 17 28 24 40 85 99 100 107 94 101 97 86 75 73 67 51 46 47 45 38 31 34 30 23 17 23 33 41
36 32 28 23 23 33 39 66 84 91 89 92 96 105 101 93 77 75 68 51 53 56 50 40 31 34 34 19 15 19 21 35
31 33 32 30 27 41 41 39 70 81 92 84 90 87 87 90 67 72 68 58 52 51 46 44 34 25 35 42 34 22 9 10
33 34 30 38 43 44 50 45 38 44 47 56 65 77 87 86 77 74 66 62 45 48 48 47 42 36 33 32 43 51 54 38
36 35 30 40 48 54 58 54 53 56 60 71 75 70 85 86 81 81 74 64 56 49 44 44 47 48 48 38 37 33 42 45
39 36 33 42 47 49 50 54 53 64 59 68 72 78 74 82 77 74 67 61 55 51 46 55 60 58 59 61 59 59 62 59
40 42 35 46 47 35 41 46 55 65 68 62 63 69 77 78 71 73 79 73 64 55 71 76 66 62 62 62 62 57 61 64
Wind_Direction_850mb
263 262 245 237 278 254 227 203 198 193 189 183 180 179 179 178 173 165 160 155 151 145 139 137 137 137 135 132 119 120 128 132
257 259 246 263 269 211 239 193 197 190 186 181 179 182 178 175 173 165 160 156 152 146 142 140 138 137 135 131 124 119 129 123
264 266 256 274 253 197 231 199 189 188 184 179 178 177 177 177 169 166 163 159 154 150 147 144 138 136 132 120 106 129 129 139
286 271 240 150 183 198 221 162 180 183 180 179 175 176 177 164 173 168 166 162 157 153 151 144 144 141 133 115 109 139 136 144
283 270 194 173 185 190 218 190 185 184 178 177 173 176 168 178 168 169 168 167 162 158 156 151 153 151 143 127 154 128 144 154
263 248 214 214 191 198 219 215 197 194 180 173 174 176 170 179 169 170 172 170 169 168 162 150 167 170 145 166 145 150 151 159
250 224 214 217 216 208 217 212 202 184 180 175 182 176 177 179 168 169 172 169 172 169 165 168 175 173 167 161 155 153 154 163
221 216 213 212 218 216 205 196 197 197 194 186 183 179 178 178 169 165 168 173 168 170 169 176 178 179 170 165 161 160 156 173
195 201 214 215 214 219 210 207 201 207 195 192 189 184 185 175 172 164 165 177 173 171 176 178 175 176 174 168 170 170 173 175
215 217 216 229 226 218 216 218 215 203 199 199 190 187 184 173 170 165 172 178 178 177 177 181 178 175 178 176 173 183 186 184
208 210 219 221 233 235 224 218 211 212 204 201 195 191 187 177 170 171 180 181 181 180 179 182 177 180 181 179 178 189 194 191
199 199 223 240 255 262 249 221 222 209 200 191 192 191 192 181 185 177 179 183 182 180 182 180 183 182 182 184 186 197 198 205
186 194 222 215 253 269 245 233 220 203 198 203 199 197 187 186 184 187 182 184 184 182 177 182 182 184 181 184 197 203 212 213
186 195 210 205 218 227 185 197 189 192 182 198 200 196 187 176 181 196 193 185 180 183 182 184 183 188 190 180 210 228 235 232
186 197 202 197 204 191 163 142 169 181 179 182 196 199 184 185 187 204 190 192 197 199 191 190 189 205 198 188 210 230 240 240
187 196 202 197 197 186 176 148 146 160 178 188 196 183 178 186 192 203 197 199 208 205 210 214 194 223 225 219 224 221 239 228
185 198 199 190 187 179 185 181 184 181 178 177 165 177 188 193 200 210 210 210 205 213 215 216 225 224 247 241 250 243 245 254
187 200 197 190 189 188 187 196 198 194 190 182 184 181 191 197 202 207 208 216 219 221 224 225 235 240 235 246 247 244 259 249
184 189 200 193 191 195 202 210 209 196 190 191 191 191 193 195 202 208 211 217 218 218 225 233 239 245 250 261 257 253 257 253
179 182 185 187 186 187 192 192 200 193 187 192 196 201 204 207 203 207 213 223 231 235 247 246 246 248 254 260 264 260 264 267